RADUGA 5 [-]

Last updated on Wed Jun 28 2023 00:02:57 GMT+0000 (Coordinated Universal Time)

1 11343U 79035A 23177.87202140 .00000023 00000+0 00000+0 0 9993 2 11343 7.9983 294.7854 0007435 179.0444 179.9136 1.00263200118434
UTC large
Height (km)
Speed (km/s)
/
Latitude / Longitude
Inclination (degrees)
Orbital Period (minutes)
Azimuth
Elevation
Range (km)
Doppler Factor

Next 0 passes for location: London (51.5072 / 0.1276)

Sorry there are no passes over London.